TimeEDT,TemperatureF,Dew PointF,Humidity,Sea Level PressureIn,VisibilityMPH,Wind Direction,Wind SpeedMPH,Gust SpeedMPH,PrecipitationIn,Events,Conditions,WindDirDegrees,DateUTC
12:54 AM,44.1,34.0,68,30.01,10.0,NW,3.5,-,N/A,,Mostly Cloudy,320,2013-04-05 04:54:00
1:54 AM,42.1,34.0,73,30.00,10.0,Calm,Calm,-,N/A,,Overcast,0,2013-04-05 05:54:00
2:54 AM,42.1,33.1,70,30.00,10.0,Calm,Calm,-,N/A,,Scattered Clouds,0,2013-04-05 06:54:00
3:54 AM,39.9,33.1,77,30.00,10.0,Calm,Calm,-,N/A,,Clear,0,2013-04-05 07:54:00
4:54 AM,39.9,30.9,70,30.03,10.0,Calm,Calm,-,N/A,,Clear,0,2013-04-05 08:54:00
5:54 AM,37.0,30.9,79,30.04,10.0,SW,3.5,-,N/A,,Clear,220,2013-04-05 09:54:00
6:54 AM,37.0,30.0,76,30.05,10.0,Calm,Calm,-,N/A,,Clear,0,2013-04-05 10:54:00
7:54 AM,35.1,30.0,82,30.07,10.0,SW,3.5,-,N/A,,Clear,230,2013-04-05 11:54:00
8:54 AM,41.0,33.1,73,30.07,10.0,Calm,Calm,-,N/A,,Clear,0,2013-04-05 12:54:00
9:54 AM,48.9,30.9,50,30.07,10.0,WNW,3.5,-,N/A,,Clear,300,2013-04-05 13:54:00
10:54 AM,55.0,28.9,37,30.08,10.0,NNW,6.9,-,N/A,,Clear,330,2013-04-05 14:54:00
11:54 AM,57.9,25.0,28,30.08,10.0,NNW,6.9,-,N/A,,Clear,340,2013-04-05 15:54:00
12:54 PM,61.0,28.0,29,30.06,10.0,NNW,9.2,-,N/A,,Clear,340,2013-04-05 16:54:00
1:54 PM,63.0,30.0,29,30.04,10.0,NW,10.4,-,N/A,,Clear,320,2013-04-05 17:54:00
2:54 PM,64.0,30.9,29,30.03,10.0,WNW,8.1,16.1,0.00,,Clear,290,2013-04-05 18:54:00
3:54 PM,64.9,30.0,27,30.02,10.0,Variable,6.9,16.1,0.00,,Clear,0,2013-04-05 19:54:00
4:54 PM,-9999,-9999,N/A,30.01,10.0,NW,11.5,18.4,N/A,,Clear,320,2013-04-05 20:54:00
5:54 PM,-9999,-9999,N/A,30.02,10.0,NNW,6.9,-,N/A,,Clear,330,2013-04-05 21:54:00
6:54 PM,-9999,-9999,N/A,30.03,10.0,NNW,8.1,-,N/A,,Clear,330,2013-04-05 22:54:00
7:54 PM,-9999,-9999,N/A,30.05,10.0,WNW,4.6,-,N/A,,Clear,300,2013-04-05 23:54:00
8:54 PM,-9999,-9999,N/A,30.07,10.0,NW,4.6,-,N/A,,Clear,310,2013-04-06 00:54:00
9:54 PM,-9999,-9999,N/A,30.10,10.0,North,6.9,-,N/A,,Clear,10,2013-04-06 01:54:00
10:54 PM,-9999,-9999,N/A,30.12,10.0,NNE,6.9,-,N/A,,Clear,20,2013-04-06 02:54:00
11:54 PM,-9999,-9999,N/A,30.12,10.0,NNE,8.1,-,N/A,,Clear,30,2013-04-06 03:54:00